WetterOnline ( https://www.wetteronline.de )

Wetter aktuell Jokkmokk

Aktuelles Wetter: Jokkmokk (275m)

6-stündlich | Neueste Meldungen
Ortszeit Temperatur Wetter
Di, 19.11. 13:00 -0.1° C leichter Schneefall
Di, 19.11. 7:00 -4.7° C gefr. Sprühregen
Di, 19.11. 1:00 -5.3° C bedeckt
Mo, 18.11. 19:00 -5.1° C bedeckt
Mo, 18.11. 13:00 -7.0° C bedeckt
Mo, 18.11. 7:00 -5.7° C bedeckt
Mo, 18.11. 1:00 -5.2° C bedeckt
So, 17.11. 19:00 -5.5° C bedeckt
Ortszeit Temperatur Wetter
Di, 19.11. 18:00 0.0° C bedeckt
Di, 19.11. 17:00 -0.1° C Schneegriesel
Di, 19.11. 16:00 0.0° C leichter Schneefall
Di, 19.11. 15:00 -0.1° C leichter Schneefall
Di, 19.11. 14:00 -0.1° C -
Di, 19.11. 13:00 -0.1° C leichter Schneefall
Ortszeit Relative Feuchte Sichtweite
Di, 19.11. 13:00 100% 1.4 km
Di, 19.11. 7:00 97% 1.5 km
Di, 19.11. 1:00 97% 40 km
Mo, 18.11. 19:00 97% 21 km
Mo, 18.11. 13:00 95% 7 km
Mo, 18.11. 7:00 96% 7 km
Mo, 18.11. 1:00 97% 3.1 km
So, 17.11. 19:00 96% 11 km
Ortszeit Relative Feuchte Sichtweite
Di, 19.11. 18:00 100% 0.9 km
Di, 19.11. 17:00 100% 4.0 km
Di, 19.11. 16:00 100% 5.0 km
Di, 19.11. 15:00 100% 3.0 km
Di, 19.11. 14:00 100% 2.0 km
Di, 19.11. 13:00 100% 1.4 km
Ortszeit Niederschlagsmenge Niederschlagsart
Di, 19.11. 13:00 2 l/m2 in 6 Std. Schnee, Niederschlag
Di, 19.11. 7:00 0.0 l/m2 Schnee
Di, 19.11. 1:00 0.0 l/m2 in 6 Std. Schauer, Niederschlag
Mo, 18.11. 19:00 0.0 l/m2 Schauer
Mo, 18.11. 13:00 0.0 l/m2 in 6 Std. -
Mo, 18.11. 7:00 0.0 l/m2 -
Mo, 18.11. 1:00 0.0 l/m2 in 6 Std. -
So, 17.11. 19:00 0.3 l/m2 in 12 Std. Schneeschauer
Ortszeit Niederschlagsmenge Niederschlagsart
Di, 19.11. 18:00 0.0 l/m2 in 1 Std. Schnee
Di, 19.11. 17:00 0.1 l/m2 in 1 Std. Schnee, Niederschlag
Di, 19.11. 16:00 0.1 l/m2 in 1 Std. Schnee, Niederschlag
Di, 19.11. 15:00 0.2 l/m2 in 1 Std. Schnee, Niederschlag
Di, 19.11. 14:00 0.1 l/m2 in 1 Std. Schnee
Di, 19.11. 13:00 0.0 l/m2 in 1 Std. Schnee, Niederschlag
Ortszeit Stärke Spitze Richtung
km/h Bft. km/h Grad Sektor
Di, 19.11. 13:00 0 0 4 - -
Di, 19.11. 7:00 0 0 0 - -
Di, 19.11. 1:00 0 0 - - -
Mo, 18.11. 19:00 0 0 0 - -
Mo, 18.11. 13:00 0 0 - - -
Mo, 18.11. 7:00 0 0 0 - -
Mo, 18.11. 1:00 0 0 - - -
So, 17.11. 19:00 0 0 4 - -
Ortszeit Stärke Spitze Richtung
km/h Bft. km/h Grad Sektor
Di, 19.11. 18:00 4 1 4 120° SO
Di, 19.11. 17:00 4 1 4 120° SO
Di, 19.11. 16:00 4 1 4 110° O
Di, 19.11. 15:00 4 1 4 110° O
Di, 19.11. 14:00 0 0 4 - -
Di, 19.11. 13:00 0 0 4 - -
Ortszeit Untergrenze Bedeckung Gattung
total tief tief mittel hoch
Di, 19.11. 13:00 180 m - - - - -
Di, 19.11. 7:00 60 m 8/8 8/8 - - -
Di, 19.11. 1:00 90 m 8/8 8/8 - - -
Mo, 18.11. 19:00 210 m 8/8 8/8 - - -
Mo, 18.11. 13:00 60 m 8/8 8/8 - - -
Mo, 18.11. 7:00 90 m 8/8 8/8 - - -
Mo, 18.11. 1:00 60 m 8/8 8/8 - - -
So, 17.11. 19:00 90 m 8/8 8/8 - - -
Ortszeit Bedeckungsgrad in Achtel und Wolkenuntergrenze
Di, 19.11. 18:00 8(60m)
Di, 19.11. 17:00 8(60m)
Di, 19.11. 16:00 7(90m) 8(270m)
Di, 19.11. 15:00 6(120m) 8(180m)
Di, 19.11. 14:00 -
Di, 19.11. 13:00 Nebel
Ortszeit Luftdruck NN (hPa) Tendenz (hPa in 3 Std.)
Di, 19.11. 13:00 1022 - 1,0
Di, 19.11. 7:00 1024 - 1,4
Di, 19.11. 1:00 1027 + 0,1
Mo, 18.11. 19:00 1027 + 0,1
Mo, 18.11. 13:00 1027 + 1,1
Mo, 18.11. 7:00 1024 + 0,8
Mo, 18.11. 1:00 1022 + 0,8
So, 17.11. 19:00 1020 + 0,2
Ortszeit Luftdruck NN (hPa) Tendenz (hPa in 3 Std.)
Di, 19.11. 18:00 1021 - 0,3
Di, 19.11. 17:00 1021 - 0,3
Di, 19.11. 16:00 1022 - 0,4
Di, 19.11. 15:00 1022 - 0,7
Di, 19.11. 14:00 1022 - 0,9
Di, 19.11. 13:00 1022 - 1,0
Ortszeit Schneehöhe (cm)
Di, 19.11. 13:00 -
Di, 19.11. 7:00 -
Di, 19.11. 1:00 -
Mo, 18.11. 19:00 -
Mo, 18.11. 13:00 -
Mo, 18.11. 7:00 -
Mo, 18.11. 1:00 -
So, 17.11. 19:00 -
Ortszeit Schneehöhe (cm)
Di, 19.11. 18:00 -
Di, 19.11. 17:00 -
Di, 19.11. 16:00 -
Di, 19.11. 15:00 -
Di, 19.11. 14:00 -
Di, 19.11. 13:00 -
Link zu dieser Seite / Seite empfehlen

Das Wetter in ...